Time,TemperatureF,DewpointF,PressureIn,WindDirection,WindDirectionDegrees,WindSpeedMPH,WindSpeedGustMPH,Humidity,HourlyPrecipIn,Conditions,Clouds,dailyrainin,SoftwareType,DateUTC
2013-06-22 00:01:00,66.0,62.0,30.16,South,180,0.0,0.0,87,0.00,,,0.00,VWS V14.01,2013-06-22 04:01:00,
2013-06-22 00:06:00,66.0,61.7,30.16,South,180,0.0,0.0,86,0.00,,,0.00,VWS V14.01,2013-06-22 04:06:00,
2013-06-22 00:11:00,66.0,61.7,30.16,South,180,0.0,0.0,86,0.00,,,0.00,VWS V14.01,2013-06-22 04:11:00,
2013-06-22 00:16:00,66.0,61.7,30.16,South,180,0.0,0.0,86,0.00,,,0.00,VWS V14.01,2013-06-22 04:16:00,
2013-06-22 00:21:00,66.0,61.7,30.16,South,180,0.0,0.0,86,0.00,,,0.00,VWS V14.01,2013-06-22 04:21:00,
2013-06-22 00:26:00,66.0,61.7,30.16,SSE,157,0.0,0.0,86,0.00,,,0.00,VWS V14.01,2013-06-22 04:26:00,
2013-06-22 00:31:00,65.0,60.7,30.16,SE,135,0.0,0.0,86,0.00,,,0.00,VWS V14.01,2013-06-22 04:31:00,
2013-06-22 00:36:00,65.0,60.7,30.16,SE,135,0.0,0.0,86,0.00,,,0.00,VWS V14.01,2013-06-22 04:36:00,
2013-06-22 00:41:00,65.0,60.7,30.16,SE,135,0.0,0.0,86,0.00,,,0.00,VWS V14.01,2013-06-22 04:41:00,
2013-06-22 00:46:00,65.0,60.7,30.16,SE,135,0.0,0.0,86,0.00,,,0.00,VWS V14.01,2013-06-22 04:46:00,
2013-06-22 00:51:00,64.0,59.7,30.16,SE,135,0.0,0.0,86,0.00,,,0.00,VWS V14.01,2013-06-22 04:51:00,
2013-06-22 00:56:00,64.0,60.4,30.16,SE,135,0.0,0.0,88,0.00,,,0.00,VWS V14.01,2013-06-22 04:56:00,
2013-06-22 01:01:00,64.0,60.4,30.16,SE,135,0.0,0.0,88,0.00,,,0.00,VWS V14.01,2013-06-22 05:01:00,
2013-06-22 01:06:00,64.0,60.4,30.16,SE,135,0.0,0.0,88,0.00,,,0.00,VWS V14.01,2013-06-22 05:06:00,
2013-06-22 01:11:00,64.0,60.4,30.16,SE,135,0.0,0.0,88,0.00,,,0.00,VWS V14.01,2013-06-22 05:11:00,
2013-06-22 01:16:00,64.0,60.7,30.16,SE,135,0.0,0.0,89,0.00,,,0.00,VWS V14.01,2013-06-22 05:16:00,
2013-06-22 01:21:00,64.0,60.7,30.16,SE,135,0.0,0.0,89,0.00,,,0.00,VWS V14.01,2013-06-22 05:21:00,
2013-06-22 01:26:00,63.0,59.4,30.16,SE,135,0.0,0.0,88,0.00,,,0.00,VWS V14.01,2013-06-22 05:26:00,
2013-06-22 01:31:00,63.0,59.4,30.16,SE,135,0.0,0.0,88,0.00,,,0.00,VWS V14.01,2013-06-22 05:31:00,
2013-06-22 01:36:00,63.0,59.4,30.16,SE,135,0.0,0.0,88,0.00,,,0.00,VWS V14.01,2013-06-22 05:36:00,
2013-06-22 01:41:00,63.0,59.4,30.17,SE,135,0.0,0.0,88,0.00,,,0.00,VWS V14.01,2013-06-22 05:41:00,
2013-06-22 01:46:00,63.0,59.4,30.17,SE,135,0.0,0.0,88,0.00,,,0.00,VWS V14.01,2013-06-22 05:46:00,
2013-06-22 01:51:00,63.0,59.4,30.17,SE,135,0.0,0.0,88,0.00,,,0.00,VWS V14.01,2013-06-22 05:51:00,
2013-06-22 01:56:00,63.0,59.7,30.17,SE,135,0.0,0.0,89,0.00,,,0.00,VWS V14.01,2013-06-22 05:56:00,
2013-06-22 02:01:00,63.0,59.7,30.17,SE,135,0.0,0.0,89,0.00,,,0.00,VWS V14.01,2013-06-22 06:01:00,
2013-06-22 02:06:00,62.0,59.0,30.17,SE,135,0.0,0.0,90,0.00,,,0.00,VWS V14.01,2013-06-22 06:06:00,
2013-06-22 02:11:00,62.0,59.0,30.17,SE,135,0.0,0.0,90,0.00,,,0.00,VWS V14.01,2013-06-22 06:11:00,
2013-06-22 02:16:00,62.0,59.0,30.17,SE,135,0.0,0.0,90,0.00,,,0.00,VWS V14.01,2013-06-22 06:16:00,
2013-06-22 02:21:00,62.0,59.0,30.18,SE,135,0.0,0.0,90,0.00,,,0.00,VWS V14.01,2013-06-22 06:21:00,
2013-06-22 02:26:00,62.0,59.3,30.18,SE,135,0.0,0.0,91,0.00,,,0.00,VWS V14.01,2013-06-22 06:26:00,
2013-06-22 02:31:00,62.0,59.3,30.17,SE,135,0.0,0.0,91,0.00,,,0.00,VWS V14.01,2013-06-22 06:31:00,
2013-06-22 02:36:00,62.0,59.3,30.17,SE,135,0.0,0.0,91,0.00,,,0.00,VWS V14.01,2013-06-22 06:36:00,
2013-06-22 02:41:00,62.0,59.3,30.17,SE,135,0.0,0.0,91,0.00,,,0.00,VWS V14.01,2013-06-22 06:41:00,
2013-06-22 02:46:00,62.0,59.3,30.17,SE,135,0.0,0.0,91,0.00,,,0.00,VWS V14.01,2013-06-22 06:46:00,
2013-06-22 02:51:00,62.0,59.7,30.17,SE,135,0.0,0.0,92,0.00,,,0.00,VWS V14.01,2013-06-22 06:51:00,
2013-06-22 02:56:00,62.0,59.7,30.17,SE,135,0.0,0.0,92,0.00,,,0.00,VWS V14.01,2013-06-22 06:56:00,
2013-06-22 03:01:00,62.0,59.7,30.17,SE,135,0.0,0.0,92,0.00,,,0.00,VWS V14.01,2013-06-22 07:01:00,
2013-06-22 03:06:00,62.0,59.7,30.17,SE,135,0.0,0.0,92,0.00,,,0.00,VWS V14.01,2013-06-22 07:06:00,
2013-06-22 03:11:00,62.0,59.7,30.17,SE,135,0.0,0.0,92,0.00,,,0.00,VWS V14.01,2013-06-22 07:11:00,
2013-06-22 03:16:00,61.0,58.7,30.17,SE,135,0.0,0.0,92,0.00,,,0.00,VWS V14.01,2013-06-22 07:16:00,
2013-06-22 08:14:00,67.0,62.3,30.13,SE,135,0.0,0.0,85,0.00,,,0.00,VWS V14.01,2013-06-22 12:14:00,
2013-06-22 08:19:00,67.0,62.7,30.13,ESE,112,0.0,0.0,86,0.00,,,0.00,VWS V14.01,2013-06-22 12:19:00,
2013-06-22 08:24:00,68.0,63.7,30.13,SSE,157,0.0,0.0,86,0.00,,,0.00,VWS V14.01,2013-06-22 12:24:00,
2013-06-22 08:29:00,68.0,61.6,30.12,ESE,112,2.0,2.0,80,0.00,,,0.00,VWS V14.01,2013-06-22 12:29:00,
2013-06-22 08:34:00,69.0,62.9,30.12,SE,135,0.0,0.0,81,0.00,,,0.00,VWS V14.01,2013-06-22 12:34:00,
2013-06-22 08:39:00,69.0,62.9,30.12,ESE,112,0.0,0.0,81,0.00,,,0.00,VWS V14.01,2013-06-22 12:39:00,
2013-06-22 08:44:00,69.0,62.2,30.12,South,180,0.0,0.0,79,0.00,,,0.00,VWS V14.01,2013-06-22 12:44:00,
2013-06-22 08:49:00,70.0,62.8,30.12,South,180,0.0,0.0,78,0.00,,,0.00,VWS V14.01,2013-06-22 12:49:00,
2013-06-22 08:54:00,70.0,61.7,30.12,ESE,112,0.0,0.0,75,0.00,,,0.00,VWS V14.01,2013-06-22 12:54:00,
2013-06-22 08:59:00,70.0,61.7,30.12,South,180,0.0,0.0,75,0.00,,,0.00,VWS V14.01,2013-06-22 12:59:00,
2013-06-22 09:04:00,70.0,62.1,30.12,South,180,0.0,0.0,76,0.00,,,0.00,VWS V14.01,2013-06-22 13:04:00,